Weather in Roshchinskiy

Russia / Samara Oblast     53°03′04″N   50°29′42″E
temp.,
°C
wind,
m/s
gust,
m/s
humid.,
%
clouds,
%
prec.,
mm/h
press.,
hPa
HPBL,
m
7 march, sun
sun701:00−12ne1283100 0.0 101321
04:00−15n128383 0.0 101320
07:00−16w11790 0.0 101220
10:00−12wsw238728 0.0 1013109
13:00−9wsw469387 0.1 1013317
16:00−8wsw479293 0.1 1012429
19:00−11ssw5109591 0.0 1011175
22:00−9ssw7149195 0.0 1009442
8 march, mon
mon801:00−6ssw101893100 0.8 1005812
04:00−5ssw111893100 1.6 10021022
07:00−4sw111893100 1.1 10001000
10:00−2wsw101684100 1.7 10011380
13:00−3wsw8147615 0.1 10041205
16:00−3wsw6128033 0.1 1005983
19:00−5sw478699 0.0 1005129
22:00−4ssw4796100 0.3 1005215
9 march, tue
tue901:00−5ssw4995100 0.4 1004245
04:00−6wsw5119493 0.4 1004304
07:00−11w510931 0.0 1006189
10:00−10w589124 0.0 1009229
13:00−7wnw238858 0.0 1009253
16:00−6w349269 0.0 1009332
19:00−8nw3496100 0.1 1010118
22:00−12nw3495100 0.3 101176
10 march, wed
wed1001:00−17nw339566 0.0 101227
04:00−17wnw349780 0.0 101248
07:00−17wnw359799 0.1 101396
10:00−14nw479398 0.2 1015435
13:00−14nw4689100 0.0 1016595
16:00−14nnw4689100 0.1 1017692
19:00−19nw4894100 0.1 1019173
22:00−22nw479692 0.1 1021180
11 march, thu
thu1101:00−25nw349771 0.0 102263
04:00−27wnw349752 0.0 102443
07:00−28wnw34960 0.0 102526
10:00−24w35950 0.0 1026161
13:00−19wsw57920 0.0 1026267
16:00−17wsw6109212 0.0 1025377
19:00−16wsw5109594 0.0 1026306
22:00−16w479594 0.1 1027120